EW0734 Weather Reports


time (UTC)temp
C
wind
direction
speed
KPH
gust
KPH
rain 1hr
cm
rain 24hr
cm
rain mn
cm
humidity
%
barometer
mb
20260504151024 22 0.0 4.8 0.00 0.00 0.00 39 1012.9
20260504141044 19 0.0 1.6 0.00 0.00 0.00 46 1013.2
20260504110525 -17 0.0 0.0 0.00 0.00 0.00
20260504110124 -17 0.0 0.0 0.00 0.00 0.00
20260504100525 -17 0.0 0.0 0.00 0.00 0.00
20260504081525 8 0.0 0.0 0.00 0.00 0.00 73 1014.5
20260504080525 8 0.0 0.0 0.00 0.00 0.00 72 1014.4
20260504050525 7 0.0 0.0 0.00 0.00 0.00 78 1014.5
20260504045525 7 0.0 0.0 0.00 0.00 0.00 78 1014.4
20260504044606 7 0.0 0.0 0.00 0.00 0.00 78 1014.3
20260504043525 7 0.0 0.0 0.00 0.00 0.00 79 1014.3
20260504042525 7 0.0 0.0 0.00 0.00 0.00 79 1014.2
20260504041525 6 0.0 0.0 0.00 0.00 0.00 79 1014.3
20260504040534 6 0.0 0.0 0.00 0.00 0.00 79 1014.3
20260504035525 6 0.0 0.0 0.00 0.00 0.00 80 1014.4
20260504034545 6 0.0 0.0 0.00 0.00 0.00 79 1014.3
20260504033525 6 0.0 0.0 0.00 0.00 0.00 79 1014.3
20260504032525 6 0.0 0.0 0.00 0.00 0.00 79 1014.3
20260504031530 6 0.0 0.0 0.00 0.00 0.00 78 1014.4
20260504030525 6 0.0 0.0 0.00 0.00 0.00 77 1014.4
20260504025525 6 0.0 0.0 0.00 0.00 0.00 76 1014.3
20260504024526 6 0.0 0.0 0.00 0.00 0.00 75 1014.2
20260504023526 6 0.0 0.0 0.00 0.00 0.00 74 1014.3
20260504022526 7 0.0 0.0 0.00 0.00 0.00 73 1014.3
20260504021525 7 0.0 0.0 0.00 0.00 0.00 72 1014.2
20260504020525 7 0.0 0.0 0.00 0.00 0.00 71 1014.1
20260504015525 7 0.0 0.0 0.00 0.00 0.00 69 1014.0
20260504014525 7 0.0 0.0 0.00 0.00 0.00 68 1014.1
20260504013525 8 0.0 0.0 0.00 0.00 0.00 66 1014.1
20260504012545 8 0.0 0.0 0.00 0.00 0.00 64 1013.9
20260504011525 8 0.0 0.0 0.00 0.00 0.00 64 1013.7
20260504010524 9 0.0 0.0 0.00 0.00 0.00 63 1013.7
20260504005525 10 0.0 0.0 0.00 0.00 0.00 60 1013.7
20260504004524 10 0.0 0.0 0.00 0.00 0.00 59 1013.6
20260504003545 10 0.0 0.0 0.00 0.00 0.00 57 1013.5
20260504002525 11 0.0 0.0 0.00 0.00 0.00 56 1013.4
20260504001525 11 0.0 0.0 0.00 0.00 0.00 55 1013.4
20260504000525 12 0.0 0.0 0.00 0.00 0.00 53 1013.4
20260503235525 13 0.0 0.0 0.00 0.00 0.00 51 1013.2
20260503234525 13 0.0 0.0 0.00 0.00 0.00 49 1013.1
20260503233525 14 0.0 0.0 0.00 0.00 0.00 46 1013.0
20260503232545 15 0.0 0.0 0.00 0.00 0.00 42 1013.0
20260503231525 15 0.0 0.0 0.00 0.00 0.00 39 1012.9
20260503230545 15 0.0 0.0 0.00 0.00 0.00 35 1012.9
20260503225544 15 0.0 0.0 0.00 0.00 0.00 36 1013.0
20260503224524 16 0.0 0.0 0.00 0.00 0.00 35 1013.0
20260503223525 16 0.0 1.6 0.00 0.00 0.00 34 1013.2
20260503222525 16 0.0 0.0 0.00 0.00 0.00 33 1013.2
20260503221525 16 0.0 0.0 0.00 0.00 0.00 35 1013.1
20260503220525 16 0.0 3.2 0.00 0.00 0.00 36 1013.2
20260503215544 16 0.0 3.2 0.00 0.00 0.00 34 1013.2
20260503214525 17 0.0 1.6 0.00 0.00 0.00 35 1013.2
20260503213525 17 0.0 1.6 0.00 0.00 0.00 34 1013.3
20260503212524 17 0.0 1.6 0.00 0.00 0.00 33 1013.3
20260503211525 17 0.0 4.8 0.00 0.00 0.00 33 1013.4
20260503210525 17 0.0 1.6 0.00 0.00 0.00 32 1013.3
20260503205529 17 0.0 0.0 0.00 0.00 0.00 33 1013.3
20260503204524 17 0.0 1.6 0.00 0.00 0.00 33 1013.4
20260503203544 17 0.0 3.2 0.00 0.00 0.00 35 1013.5
20260503202524 17 0.0 4.8 0.00 0.00 0.00 33 1013.5
20260503201525 18 0.0 3.2 0.00 0.00 0.00 30 1013.6
20260503200524 18 0.0 3.2 0.00 0.00 0.00 30 1013.8
20260503195525 18 0.0 1.6 0.00 0.00 0.00 32 1014.2
20260503194525 18 0.0 4.8 0.00 0.00 0.00 34 1014.3
20260503193525 18 0.0 3.2 0.00 0.00 0.00 31 1014.4
20260503192545 17 0.0 1.6 0.00 0.00 0.00 34 1014.7
20260503191525 18 0.0 3.2 0.00 0.00 0.00 31 1014.7
20260503190525 18 0.0 4.8 0.00 0.00 0.00 33 1014.9
20260503185525 18 0.0 3.2 0.00 0.00 0.00 32 1015.0
20260503184525 17 0.0 4.8 0.00 0.00 0.00 34 1015.2
20260503183544 18 315 1.6 4.8 0.00 0.00 0.00 32 1015.3
20260503182524 18 0.0 1.6 0.00 0.00 0.00 33 1015.4
20260503181524 18 293 1.6 3.2 0.00 0.00 0.00 33 1015.4
20260503180524 17 0.0 3.2 0.00 0.00 0.00 36 1015.5
20260503175524 17 0.0 4.8 0.00 0.00 0.00 34 1015.5
20260503174524 17 270 1.6 11.3 0.00 0.00 0.00 36 1015.5
20260503173524 17 0.0 3.2 0.00 0.00 0.00 33 1015.5
20260503172525 16 0.0 4.8 0.00 0.00 0.00 33 1015.7
20260503171605 16 0.0 6.4 0.00 0.00 0.00 36 1015.8
20260503170544 17 270 1.6 4.8 0.00 0.00 0.00 35 1015.9